Simultaneous Nadir Overpasses (SNOs) Predictions

Prediction of SNOs between LANDSAT-8 and NPP Satellite Orbit:

Table of predicted SNOs for the next 14.0 days since TLE Epoch: 5/25/2024
Index Date (LANDSAT-8) Time (LANDSAT-8) Lat,Lon (LANDSAT-8) SZA (LANDSAT-8 ) Date (NPP) Time (NPP) Lat,Lon (NPP) SZA (NPP ) Distance(km) Time Diff (sec)
1 05/25/2024 06:07:59 -70.23, -95.71 130.90 05/25/2024 06:07:26 -70.23, -95.73 130.89 1.31 33
2 05/25/2024 06:57:26 70.12, 71.79 49.00 05/25/2024 06:58:10 70.13, 71.74 49.00 2.01 44
3 05/27/2024 21:34:53 70.61,-146.91 49.03 05/27/2024 21:33:42 70.70,-148.00 49.16 41.21 71
4 05/27/2024 22:24:29 -70.17, 20.08 131.41 05/27/2024 22:24:16 -70.18, 20.14 131.39 2.66 13
5 05/27/2024 23:13:56 70.06,-172.43 48.49 05/27/2024 23:15:00 70.08,-172.39 48.50 2.07 64
6 05/30/2024 13:51:27 70.28, -31.51 48.32 05/30/2024 13:50:25 70.29, -31.56 48.33 1.73 62
7 05/30/2024 14:40:57 -70.18, 135.97 131.80 05/30/2024 14:41:07 -70.19, 135.91 131.79 2.19 10
8 05/30/2024 15:30:33 69.57, -57.23 47.62 05/30/2024 15:31:42 69.61, -55.91 47.62 51.31 69
9 06/02/2024 06:07:55 70.25, 84.32 47.93 06/02/2024 06:07:15 70.26, 84.28 47.94 1.64 40
10 06/02/2024 06:57:25 -70.15,-108.20 132.18 06/02/2024 06:57:57 -70.15,-108.25 132.18 2.00 32
11 06/04/2024 21:34:42 -71.00, 33.68 131.65 06/04/2024 21:33:34 -71.06, 31.44 131.53 81.11 68
12 06/04/2024 22:24:21 70.23,-159.83 47.60 06/04/2024 22:24:04 70.24,-159.91 47.61 3.05 17
13 06/04/2024 23:13:52 -70.08, 7.58 132.56 06/04/2024 23:14:45 -70.08, 7.65 132.56 2.70 53
14 06/07/2024 13:51:21 -70.29, 148.50 132.61 06/07/2024 13:50:09 -70.27, 148.52 132.62 2.75 72
15 06/07/2024 14:40:48 70.18, -44.03 47.28 06/07/2024 14:40:53 70.18, -44.03 47.28 0.42 5
16 06/07/2024 15:30:20 -69.96, 123.31 132.93 06/07/2024 15:31:33 -69.97, 123.61 132.94 11.61 73



Historial Predications of SNOs between LANDSAT-8 and NPP
